{"data":{"norad_id":56519,"epoch":"2026-09-20T17:04:46.432992Z","epoch_age_seconds":96494,"freshness":"FRESH","line1":"1 56519U 23065S   26263.71164853 -.00000272  00000+0 -34269-6 0  9998","line2":"2 56519  43.0041 191.2772 0001206 263.2391  96.8324 15.27574038186429","mean_motion":15.27574038,"eccentricity":0.0001206,"inclination_deg":43.0041,"raan_deg":191.2772,"arg_perigee_deg":263.2391,"mean_anomaly_deg":96.8324,"bstar":-3.4269e-7,"rev_number":18642,"period_min":94.267116629276,"perigee_km":482.23948727435,"apogee_km":483.89440966672,"semimajor_km":6861.2039484705,"source":"CELESTRAK","updated_at":"2026-09-21T09:00:33.472228Z"}}